Weather History for Texarkana, AR

Change the Weather History Date:

Wednesday, April 2, 2014

  Actual Average Record
Temperature  
Mean Temperature 72 °F 60 °F  
Max Temperature 77 °F 72 °F 92 °F (1918)
Min Temperature 66 °F 49 °F 29 °F (1936)
Degree Days  
Heating Degree Days 0 6  
Month to date heating degree days 0 12  
Since 1 July heating degree days 2862 2506  
Cooling Degree Days 7 1  
Month to date cooling degree days 9 2  
Year to date cooling degree days 16 25  
Growing Degree Days 20 (Base 50)    
Moisture  
Dew Point 65 °F    
Average Humidity 84    
Maximum Humidity 93    
Minimum Humidity 74    
Precipitation  
Precipitation 0.00 in 0.12 in 1.24 in (1944)
Month to date precipitation 0.00 0.25  
Year to date precipitation 7.23 11.84  
Snow  
Snow 0.00 in - - ()
Month to date snowfall 0.0  
Since 1 July snowfall 1.7  
Snow Depth 0.00 in    
Sea Level Pressure  
Sea Level Pressure 29.88 in    
Wind  
Wind Speed 11 mph (SSE)    
Max Wind Speed 20 mph    
Max Gust Speed 28 mph    
Visibility 9 miles    
Events      
T = Trace of Precipitation, MM = Missing Value Source: NWS Daily Summary

Daily Weather History Graph

Daily Weather History Graph

Search for Another Location

Airport:

Trip Planner

Search our weather history database for the weather conditions in past years. The results will help you decide how hot, cold, wet, or windy it might be!

Date:

Astronomy

Apr. 02, 2014 Rise Set
Actual Time 7:02 AM CDT 7:37 PM CDT
Civil Twilight 6:37 AM CDT 8:02 PM CDT
Nautical Twilight 6:07 AM CDT 8:31 PM CDT
Astronomical Twilight 5:37 AM CDT 9:01 PM CDT
Moon 8:55 AM CDT (4/2) 10:51 PM CDT (4/2)
Length of Visible Light 13h 25m
Length of Day
12h 34m
Waxing Crescent, 10% of the Moon is Illuminated
Apr 2
Waxing Crescent
Apr 7
First Quarter
Apr 15
Full
Apr 22
Last Quarter
Apr 29
New

Hourly Weather History & Observations

Time (CDT) Temp. Dew Point Humidity Pressure Visibility Wind Dir Wind Speed Gust Speed Precip Events Conditions
12:53 AM 66.9 °F 63.0 °F 87% 29.93 in 9.0 mi South 9.2 mph - N/A   Clear
1:53 AM 66.9 °F 63.0 °F 87% 29.91 in 9.0 mi South 10.4 mph - N/A   Clear
2:53 AM 66.9 °F 62.1 °F 84% 29.90 in 10.0 mi South 10.4 mph - N/A   Clear
3:53 AM 66.0 °F 62.1 °F 87% 29.91 in 10.0 mi South 6.9 mph - N/A   Clear
4:53 AM 66.9 °F 62.1 °F 84% 29.90 in 10.0 mi SSE 6.9 mph - N/A   Overcast
5:53 AM 66.0 °F 62.1 °F 87% 29.91 in 10.0 mi SE 3.5 mph - N/A   Overcast
6:04 AM 66.2 °F 62.6 °F 88% 29.92 in 10.0 mi SE 4.6 mph - N/A   Overcast
7:53 AM 66.0 °F 63.0 °F 90% 29.92 in 6.0 mi SSE 8.1 mph - N/A   Overcast
8:14 AM 66.2 °F 62.6 °F 88% 29.94 in 5.0 mi SSE 9.2 mph - N/A   Overcast
8:53 AM 66.9 °F 63.0 °F 87% 29.93 in 5.0 mi SSE 10.4 mph - N/A   Overcast
9:53 AM 66.9 °F 64.0 °F 90% 29.93 in 5.0 mi SSE 10.4 mph - N/A   Overcast
10:53 AM 66.9 °F 64.0 °F 90% 29.93 in 4.0 mi South 11.5 mph 18.4 mph N/A   Overcast
11:53 AM 69.1 °F 64.9 °F 87% 29.92 in 6.0 mi South 10.4 mph - N/A   Overcast
12:19 PM 69.8 °F 66.2 °F 88% 29.92 in 7.0 mi SSE 11.5 mph - N/A   Overcast
12:53 PM 71.1 °F 66.0 °F 84% 29.91 in 7.0 mi South 16.1 mph 21.9 mph N/A   Overcast
1:49 PM 73.4 °F 66.2 °F 78% 29.89 in 8.0 mi South 13.8 mph 21.9 mph N/A   Mostly Cloudy
1:53 PM 73.9 °F 66.0 °F 76% 29.88 in 8.0 mi South 12.7 mph - N/A   Overcast
2:26 PM 75.2 °F 66.2 °F 73% 29.88 in 9.0 mi South 10.4 mph - N/A   Overcast
2:53 PM 75.0 °F 66.9 °F 76% 29.86 in 9.0 mi South 9.2 mph 19.6 mph N/A   Overcast
3:34 PM 75.2 °F 66.2 °F 73% 29.86 in 9.0 mi South 11.5 mph 20.7 mph N/A   Overcast
3:53 PM 75.0 °F 66.9 °F 76% 29.84 in 10.0 mi South 16.1 mph 24.2 mph N/A   Overcast
4:25 PM 75.2 °F 66.2 °F 73% 29.85 in 10.0 mi South 15.0 mph 19.6 mph N/A   Mostly Cloudy
5:06 PM 75.2 °F 66.2 °F 73% 29.84 in 10.0 mi South 9.2 mph 18.4 mph N/A   Mostly Cloudy
5:33 PM 75.2 °F 66.2 °F 73% 29.83 in 10.0 mi South 11.5 mph - N/A   Overcast
5:53 PM 75.9 °F 66.0 °F 71% 29.82 in 10.0 mi SSE 12.7 mph 23.0 mph N/A   Mostly Cloudy
6:53 PM 75.0 °F 66.0 °F 73% 29.82 in 10.0 mi SSE 16.1 mph 25.3 mph N/A   Overcast
7:53 PM 73.0 °F 66.0 °F 79% 29.81 in 10.0 mi SSE 11.5 mph - N/A   Overcast
8:53 PM 72.0 °F 66.0 °F 81% 29.81 in 10.0 mi SSE 15.0 mph 21.9 mph N/A   Scattered Clouds
9:53 PM 72.0 °F 66.0 °F 81% 29.82 in 10.0 mi SSE 13.8 mph 21.9 mph N/A   Overcast
10:53 PM 72.0 °F 66.0 °F 81% 29.82 in 10.0 mi SSE 12.7 mph - N/A   Overcast
11:27 PM 71.6 °F 66.2 °F 83% 29.83 in 10.0 mi SSE 10.4 mph - N/A   Overcast
11:53 PM 72.0 °F 66.0 °F 81% 29.81 in 10.0 mi SSE 13.8 mph 21.9 mph N/A   Overcast